GW1942 Weather Reports


Display with metric or nautical units.
time (UTC)temp
F
wind
direction
speed
MPH
gust
MPH
rain 1hr
in
rain 24hr
in
rain mn
in
humidity
%
barometer
mb
20260505173040 60 61 0.0 2.0 0.00 0.00 0.00 34 1016.0
20260505171537 58 56 1.0 5.0 0.00 0.00 0.00 35 1016.1
20260505170034 57 281 0.0 4.0 0.00 0.00 0.00 36 1016.2
20260505164530 56 46 1.0 4.0 0.00 0.00 0.00 41 1016.4
20260505163034 55 162 1.0 3.0 0.00 0.00 0.00 47 1016.6
20260505161537 53 9 1.0 4.0 0.00 0.00 0.00 52 1016.6
20260505153018 50 300 0.0 1.0 0.00 0.00 0.00 57 1016.9
20260505151517 49 259 0.0 1.0 0.00 0.00 0.00 60 1017.0
20260505124510 31 136 0.0 0.0 0.00 0.00 0.00 89 1016.1
20260505123004 31 184 0.0 1.0 0.00 0.00 0.00 88 1015.9
20260505121505 31 133 0.0 0.0 0.00 0.00 0.00 88 1015.8
20260505120113 32 133 0.0 1.0 0.00 0.00 0.00 86 1015.6
20260505114556 32 132 0.0 1.0 0.00 0.00 0.00 86 1015.6
20260505113110 32 148 0.0 1.0 0.00 0.00 0.00 86 1015.4
20260505111555 33 106 0.0 1.0 0.00 0.00 0.00 87 1015.5
20260505101550 36 136 0.0 2.0 0.00 0.00 0.00 80 1015.4
20260505100042 35 126 0.0 1.0 0.00 0.00 0.00 83 1015.3
20260505094541 36 115 0.0 1.0 0.00 0.00 0.00 82 1015.2
20260505093040 36 132 0.0 0.0 0.00 0.00 0.00 83 1015.3
20260505091539 36 136 0.0 1.0 0.00 0.00 0.00 83 1015.1
20260505090042 36 140 0.0 0.0 0.00 0.00 0.00 82 1015.2
20260505084539 38 158 0.0 1.0 0.00 0.00 0.00 79 1015.0
20260505083030 38 174 0.0 0.0 0.00 0.00 0.00 80 1014.9
20260505081527 39 200 0.0 1.0 0.00 0.00 0.00 78 1014.8
20260505080039 40 161 0.0 0.0 0.00 0.00 0.00 76 1014.9
20260505074527 40 127 0.0 1.0 0.00 0.00 0.00 77 1014.8
20260505073028 41 240 0.0 1.0 0.00 0.00 0.00 74 1014.7
20260505071517 42 114 0.0 1.0 0.00 0.00 0.00 74 1014.5
20260505070013 43 116 0.0 3.0 0.00 0.00 0.00 70 1014.2
20260505064509 46 76 0.0 1.0 0.00 0.00 0.00 60 1014.2
20260505063007 46 131 0.0 2.0 0.00 0.00 0.00 63 1014.1
20260505061503 50 71 0.0 1.0 0.00 0.00 0.00 54 1013.9
20260505060059 51 84 0.0 4.0 0.00 0.00 0.00 51 1014.0
20260505054559 51 85 2.0 4.0 0.00 0.00 0.00 53 1013.7
20260505053056 52 112 3.0 6.0 0.00 0.00 0.00 50 1013.5
20260505051555 54 35 3.0 8.0 0.00 0.00 0.00 47 1013.3
20260505041550 57 93 6.0 13.0 0.00 0.00 0.00 42 1012.1
20260505040054 58 57 3.0 9.0 0.00 0.00 0.00 42 1011.8
20260505034552 58 86 2.0 12.0 0.00 0.00 0.00 43 1011.5
20260505033048 58 122 4.0 9.0 0.00 0.00 0.00 41 1011.1
20260505031556 59 77 4.0 9.0 0.00 0.00 0.00 42 1010.8
20260505030049 60 89 6.0 12.0 0.00 0.00 0.00 41 1010.6
20260505024551 61 89 5.0 11.0 0.00 0.00 0.00 40 1010.4
20260505023048 62 76 6.0 10.0 0.00 0.00 0.00 39 1010.2
20260505021547 65 79 7.0 12.0 0.00 0.00 0.00 36 1010.1
20260505020046 66 81 4.0 10.0 0.00 0.00 0.00 36 1010.0
20260505014601 66 108 5.0 10.0 0.00 0.00 0.00 36 1010.0
20260505013044 67 63 2.0 8.0 0.00 0.00 0.00 34 1010.0
20260505011549 67 98 7.0 14.0 0.00 0.00 0.00 33 1010.0
20260505010042 68 201 6.0 13.0 0.00 0.00 0.00 32 1010.0
20260505004541 68 119 5.0 11.0 0.00 0.00 0.00 33 1010.0
20260505003040 68 89 6.0 10.0 0.00 0.00 0.00 33 1010.0
20260505001543 67 79 2.0 7.0 0.00 0.00 0.00 32 1009.9
20260505000039 68 37 6.0 9.0 0.00 0.00 0.00 32 1009.9
20260504234538 68 49 5.0 10.0 0.00 0.00 0.00 33 1009.6
20260504233040 69 71 5.0 11.0 0.00 0.00 0.00 31 1009.6
20260504231540 70 116 7.0 12.0 0.00 0.00 0.00 30 1009.6
20260504230040 72 105 1.0 4.0 0.00 0.00 0.00 34 1009.7
20260504224539 70 44 2.0 6.0 0.00 0.00 0.00 30 1009.7
20260504223035 70 91 3.0 8.0 0.00 0.00 0.00 31 1009.8
20260504221535 70 76 5.0 9.0 0.00 0.00 0.00 30 1009.9
20260504220034 71 66 2.0 6.0 0.00 0.00 0.00 31 1010.0
20260504214532 70 198 2.0 5.0 0.00 0.00 0.00 35 1010.0
20260504213031 69 89 3.0 9.0 0.00 0.00 0.00 35 1010.0
20260504211528 70 210 2.0 9.0 0.00 0.00 0.00 34 1010.0
20260504210036 70 121 4.0 10.0 0.00 0.00 0.00 32 1010.0
20260504204532 69 122 1.0 10.0 0.00 0.00 0.00 36 1010.2
20260504203136 68 118 4.0 9.0 0.00 0.00 0.00 34 1010.3
20260504201522 69 117 4.0 9.0 0.00 0.00 0.00 31 1010.3
20260504200022 69 80 5.0 14.0 0.00 0.00 0.00 34 1010.4
20260504194624 69 255 1.0 11.0 0.00 0.00 0.00 34 1010.4
20260504193016 68 111 6.0 9.0 0.00 0.00 0.00 34 1010.7
20260504191514 68 265 2.0 12.0 0.00 0.00 0.00 34 1010.5
20260504190012 67 110 6.0 12.0 0.00 0.00 0.00 33 1010.8
20260504184511 66 134 3.0 11.0 0.00 0.00 0.00 35 1011.0
20260504183010 66 68 0.0 5.0 0.00 0.00 0.00 35 1011.2
20260504181508 66 290 1.0 5.0 0.00 0.00 0.00 35 1011.2
20260504180006 65 328 1.0 6.0 0.00 0.00 0.00 37 1011.4
20260504174502 64 325 0.0 4.0 0.00 0.00 0.00 40 1011.5